Location: East Garden City
(40.7308°N, 73.5981°W)
Time: 06:05:47
(UTC+00:00)

Daily predictions for brighter satellites

Satellite Brightness Start Highest point End
(mag) Time Altitude Azimuth Time Altitude Azimuth Time Altitude Azimuth
STARLINK-1243 3.5 23:35:20 10° SW 23:39:19 75° SE 23:43:21 10° NE
Cosmos 1626 3.8 23:38:18 10° NE 23:40:37 16° ENE 23:42:55 10° ESE
Ariane Rocket 3.7 23:36:36 10° SE 23:41:11 35° ENE 23:45:46 10° N
Cosmos 1980 3.8 23:35:34 10° SSW 23:41:15 86° WNW 23:46:59 10° NNE
Cosmos 1943 Rocket 4.1 23:40:02 10° NNE 23:42:04 12° NE 23:44:06 10° ENE
Cosmos 1242 Rocket 3.1 23:39:30 10° NNW 23:42:55 60° W 23:46:21 10° S
STARLINK-1236 3.5 23:39:59 10° SW 23:44:00 82° SE 23:48:02 10° NE
Cosmos 1892 Rocket 4.0 23:39:55 10° N 23:44:11 43° ENE 23:48:27 10° SSE
Cosmos 332 Rocket 3.9 23:41:09 10° NNW 23:46:01 60° ENE 23:50:52 10° SSE
Cosmos 1110 Rocket 4.3 23:44:26 10° N 23:49:30 46° ENE 23:54:28 10° SE
Orbus 7S? 2.5 23:47:26 10° NW 23:50:20 58° NE 23:52:43 10° SE
S3M 4.0 23:45:53 10° S 23:52:11 70° E 23:58:33 10° NNE
ARGOS Delta rocket 4.4 23:47:57 10° SE 23:52:45 45° ENE 23:57:48 10° N
Okean 1-7 Rocket 3.9 23:48:42 10° N 23:52:57 45° E 23:57:07 10° SSE
STARLINK-1269 3.6 23:49:24 10° SW 23:53:26 83° NW 23:57:29 10° NE
HJ-1C 3.4 23:50:10 10° SSE 23:53:27 60° ENE 23:56:47 10° N
ATLAS 3B CENTAUR R/B 4.2 23:52:44 10° WSW 23:56:36 14° SW 23:59:19 10° S
